Погода в Берёзовке

Россия / Омская область     54°47′43″N   73°04′45″E
темп.,
°C
ветер,
м/с
пор.,
м/с
влажн.,
%
обл.,
%
осадки,
мм/ч
давл.,
гПа
погр.,
м
17 апреля, сб
сб1700:00+3ссв611805 0.1 1024548
03:00+1ссв59885 0.0 1025380
06:00−1ссв36875 0.0 1027295
09:00+1ссв33613 0.0 1028558
12:00+3ссз22420 0.0 1027897
15:00+6зюз33340 0.0 10261191
18:00+7з45350 0.0 10241441
21:00+4юз22555 0.0 102228
18 апреля, вс
вс1800:00+3ююз356633 0.0 102081
03:00+2юз49735 0.0 1017152
06:00+2юз4978100 0.0 1015141
09:00+6зюз51268100 0.0 1012463
12:00+10з81350100 0.0 10101781
15:00+10зсз91451100 0.1 10092069
18:00+2ссз11146168 0.4 10151233
21:00−3с9136310 0.0 10201202
19 апреля, пн
пн1900:00−4с811545 0.0 10231253
03:00−6с79492 0.0 10261065
06:00−7с685084 0.0 10281189
09:00−6с674231 0.0 10301261
12:00−4с673491 0.0 10311667
15:00−2с6731100 0.0 10312083
18:00−3с6732100 0.0 10312087
21:00−4ссв47435 0.0 1032658
20 апреля, вт
вт2000:00−5с36475 0.0 10321183
03:00−5с35505 0.0 1033979
06:00−6ссз36550 0.0 1033433
09:00−4ссз45435 0.0 10341223
12:00−1сз45345 0.0 10331605
15:00+1зсз56305 0.0 10311815
18:00+2зсз573286 0.0 10291859
21:000зюз375386 0.0 1028157
21 апреля, ср
ср2100:00+1з61156100 0.0 1026402
03:000з6126783 0.0 1024299
06:00+1зсз6137798 0.0 1023487
09:00+4зсз71370100 0.0 1023680
12:00+4ссз9128399 0.1 10231058
15:00+5с81164100 0.3 10251584
18:00+6с710455 0.4 10281831
21:00+3ссв37645 0.0 1031117